This is the latest recevied weather packets stored in our database for station/object N7QNM-13. If no packets are shown the sender has not sent any weather packets the latest 10 day(s).
| Time | Temp. | Humidity | Pressure | Rain* | Wind** | Luminosity | Snow |
|---|---|---|---|---|---|---|---|
| 1777736454 | 20.56° C | 52% | 1013.4 hPa | 0 mm | - | 389 W/m² | - |
| 1777734054 | 16.11° C | 69% | 1013.4 hPa | 0 mm | - | 268 W/m² | - |
| 1777733474 | 15° C | 73% | 1013.5 hPa | 0 mm | - | 240 W/m² | - |
| 1777732854 | 13.89° C | 77% | 1013.5 hPa | 0 mm | - | 208 W/m² | - |
| 1777731056 | 12.22° C | 82% | 1013.3 hPa | 0 mm | - | 102 W/m² | - |
| 1777728057 | 11.11° C | 81% | 1013 hPa | 0 mm | - | 25 W/m² | - |
| 1777723257 | 12.22° C | 78% | 1012.6 hPa | 0 mm | - | 0 W/m² | - |
| 1777722657 | 11.67° C | 77% | 1012.6 hPa | 0 mm | - | 0 W/m² | - |
| 1777722057 | 11.67° C | 76% | 1012.6 hPa | 0 mm | - | 0 W/m² | - |
| 1777719677 | 12.78° C | 71% | 1012.4 hPa | 0 mm | - | 0 W/m² | - |
| 1777713660 | 11.67° C | 73% | 1012.6 hPa | 0 mm | - | 0 W/m² | - |
| 1777713059 | 11.67° C | 73% | 1012.7 hPa | 0 mm | - | 0 W/m² | - |
| 1777712479 | 12.22° C | 71% | 1012.7 hPa | 0 mm | - | 0 W/m² | - |
| 1777711859 | 12.22° C | 70% | 1012.8 hPa | 0 mm | - | 0 W/m² | - |
| 1777710659 | 12.78° C | 69% | 1012.8 hPa | 0 mm | - | 0 W/m² | - |
| 1777708859 | 12.78° C | 68% | 1012.8 hPa | 0 mm | - | 0 W/m² | - |
| 1777705260 | 13.33° C | 65% | 1012.5 hPa | 0 mm | - | 0 W/m² | - |
| 1777704080 | 13.89° C | 64% | 1012.5 hPa | 0 mm | - | 0 W/m² | - |
| 1777702281 | 14.44° C | 64% | 1012.4 hPa | 0 mm | - | 0 W/m² | - |
| 1777700461 | 15° C | 61% | 1012.4 hPa | 0 mm | - | 0 W/m² | - |
| 1777698662 | 15° C | 61% | 1012.4 hPa | 0 mm | - | 0 W/m² | - |
| 1777697461 | 15° C | 59% | 1012 hPa | 0 mm | - | 0 W/m² | - |
| 1777689663 | 23.89° C | 40% | 1011.4 hPa | 0 mm | - | 21 W/m² | - |
| 1777687864 | 24.44° C | 40% | 1011.3 hPa | 0 mm | - | 92 W/m² | - |
| 1777681865 | 25° C | 38% | 1011.9 hPa | 0 mm | - | 216 W/m² | - |
* Rain latest hour (hover to see other rain measurements)
** Current wind speed in m/s (hover to see current wind gust speed)